Jackson Hawkins Field, MS

12:31 PM CDT on September 20, 2017 (GMT -0500)
Hawkins

Weather History for KHKS - October, 2011

Change the Weather History Date:

Monday, October 31, 2011

  Actual Average (KJAN) Record (KJAN)
Temperature  
Mean Temperature 55 °F -  
Max Temperature 71 °F 75 °F 90 °F (1912)
Min Temperature 39 °F 51 °F 26 °F (1993)
Degree Days  
Heating Degree Days 10    
Growing Degree Days 5 (Base 50)    
Moisture  
Dew Point 40 °F    
Average Humidity 66    
Maximum Humidity 96    
Minimum Humidity 31    
Precipitation  
Precipitation 0.00 in - - ()
Sea Level Pressure  
Sea Level Pressure 30.19 in    
Wind  
Wind Speed 1 mph (NW)    
Max Wind Speed 9 mph    
Max Gust Speed -    
Visibility 9 miles    
Events      
Averages and records for this station are not official NWS values.
T = Trace of Precipitation, MM = Missing Value Source: NWS Daily Summary

Daily Weather History Graph

Daily Weather History Graph

Search for Another Location

Airport or City:

Trip Planner

Search our weather history database for the weather conditions in past years. The results will help you decide how hot, cold, wet, or windy it might be!

Date:

Astronomy

Oct. 31, 2011 Rise Set
Actual Time 7:16 AM CDT 6:11 PM CDT
Civil Twilight 6:51 AM CDT 6:36 PM CDT
Nautical Twilight 6:22 AM CDT 7:05 PM CDT
Astronomical Twilight 5:54 AM CDT 7:34 PM CDT
Moon 12:16 PM CDT (10/31) 10:53 PM CDT (10/31)
Length of Visible Light 11h 45m
Length of Day
10h 54m
Waxing Crescent, 30% of the Moon is Illuminated
Oct 31
Waxing Crescent
Nov 2
First Quarter
Nov 10
Full
Nov 18
Last Quarter
Nov 25
New

Hourly Weather History & Observations

Time (CDT) Temp. Dew Point Humidity Pressure Visibility Wind Dir Wind Speed Gust Speed Precip Events Conditions
12:53 AM 42.1 °F 39.9 °F 92% 30.20 in 5.0 mi Calm Calm - N/A   Clear
1:53 AM 41.0 °F 39.0 °F 93% 30.21 in 9.0 mi Calm Calm - N/A   Clear
2:53 AM 39.9 °F 37.9 °F 93% 30.20 in 8.0 mi Calm Calm - N/A   Clear
3:53 AM 39.9 °F 37.9 °F 93% 30.19 in 6.0 mi Calm Calm - N/A   Clear
4:53 AM 39.0 °F 37.9 °F 96% 30.19 in 6.0 mi Calm Calm - N/A   Clear
5:53 AM 39.0 °F 37.0 °F 93% 30.19 in 6.0 mi Calm Calm - N/A   Clear
6:53 AM 39.0 °F 37.0 °F 93% 30.19 in 7.0 mi Calm Calm - N/A   Clear
7:53 AM 39.9 °F 37.9 °F 93% 30.20 in 7.0 mi Calm Calm - N/A   Clear
8:53 AM 46.9 °F 41.0 °F 80% 30.22 in 10.0 mi Calm Calm - N/A   Clear
9:53 AM 57.0 °F 45.0 °F 64% 30.22 in 10.0 mi Calm Calm - N/A   Clear
10:53 AM 64.0 °F 39.0 °F 40% 30.22 in 10.0 mi Variable 3.5 mph - N/A   Clear
11:53 AM 66.0 °F 39.0 °F 37% 30.21 in 10.0 mi NW 6.9 mph - N/A   Clear
12:53 PM 69.1 °F 39.0 °F 33% 30.19 in 10.0 mi WNW 9.2 mph - N/A   Clear
1:53 PM 69.1 °F 39.9 °F 35% 30.16 in 10.0 mi NNW 4.6 mph - N/A   Clear
2:53 PM 71.1 °F 39.9 °F 32% 30.15 in 10.0 mi NW 6.9 mph - N/A   Clear
3:53 PM 71.1 °F 39.0 °F 31% 30.14 in 10.0 mi NW 8.1 mph - N/A   Clear
4:53 PM 70.0 °F 39.0 °F 32% 30.14 in 10.0 mi Variable 3.5 mph - N/A   Clear
5:53 PM 66.0 °F 37.9 °F 36% 30.15 in 10.0 mi NNW 3.5 mph - N/A   Clear
6:53 PM 61.0 °F 39.9 °F 46% 30.16 in 10.0 mi Calm Calm - N/A   Clear
7:53 PM 55.0 °F 42.1 °F 62% 30.18 in 10.0 mi Calm Calm - N/A   Clear
9:53 PM 48.9 °F 42.1 °F 77% 30.19 in 10.0 mi Calm Calm - N/A   Clear
11:53 PM 45.0 °F 42.1 °F 90% 30.20 in 10.0 mi Calm Calm - N/A   Clear